Location: Austin
(30.3000°N, 97.7500°W)
Time: 10:52:04
(UTC-05:00)

Gbstr 26 Del rocket - Pass Details

Date: 03 April 2024
Orbit: 490 x 1242 km, 51.8° (Epoch: 21 April)

Event Time Altitude Azimuth Distance (km) Brightness Sun altitude
Exits shadow 05:31:36 50° 163° (SSE) 713 3.2 -22.9°
Maximum altitude 05:32:08 55° 132° (SE) 669 3.3 -22.8°
Drops below altitude 10° 05:35:54 10° 54° (NE) 1,733 6.4 -22.0°
Sets 05:38:00 0° 49° (NE) 2,583 7.5 -21.6°
